Location: Henham
(51.9333°N, 0.2500°E)
Time: 20:04:35
(UTC+00:00)

H-2A R/B - Pass Details

Date: 23 October 2019
Orbit: 733 x 837 km, 98.3° (Epoch: 21 November)

Event Time Altitude Azimuth Distance (km) Brightness Sun altitude
Exits shadow 17:40:41 11° 77° (ENE) 2,408 3.9 -8.6°
Maximum altitude 17:43:12 14° 48° (NE) 2,174 3.9 -9.0°
Drops below altitude 10° 17:45:54 10° 19° (NNE) 2,461 4.4 -9.4°
Sets 17:49:25 0° 355° (N) 3,403 5.3 -9.9°
